QPF
0.00 0.00 0.00 0.00 0.00 0.00 0.00 0.00 0.00 0.00 0.01 0.01 0.01 0.01 0.02 0.02 0.02 0.01 0.01 0.01 0.01 0.00 0.00 0.00 0.00 0.00 0.00 0.00 0.00 0.00 0.00 0.00 0.01 0.01 0.01 0.01 0.00 0.00 0.00 0.00 0.01 0.02 0.04 0.06
0.00 0.00 0.00 0.00 0.00 0.00 0.00 0.01 0.01 0.01 0.02 0.01 0.02 0.02 0.02 0.02 0.02 0.01 0.01 0.01 0.00 0.00 0.00 0.00 0.00 0.00 0.00 0.00 0.00 0.00 0.00 0.01 0.01 0.01 0.01 0.01 0.00 0.00 0.00 0.00 0.01 0.01 0.02 0.05
0.00 0.01 0.00 0.00 0.00 0.00 0.01 0.02 0.03 0.04 0.04 0.03 0.03 0.03 0.03 0.03 0.02 0.01 0.01 0.01 0.01 0.01 0.01 0.00 0.00 0.00 0.00 0.00 0.01 0.01 0.01 0.02 0.02 0.02 0.02 0.02 0.02 0.01 0.00 0.00 0.00 0.01 0.01 0.02
0.00 0.00 0.00 0.00 0.00 0.00 0.01 0.02 0.03 0.03 0.03 0.04 0.04 0.04 0.04 0.04 0.03 0.02 0.01 0.01 0.00 0.00 0.00 0.00 0.00 0.00 0.00 0.00 0.00 0.01 0.02 0.03 0.04 0.04 0.04 0.04 0.03 0.02 0.01 0.01 0.00 0.00 0.01 0.00
0.00 0.00 0.00 0.01 0.01 0.01 0.02 0.03 0.03 0.04 0.05 0.06 0.05 0.04 0.04 0.03 0.01 0.01 0.00 0.00 0.00 0.00 0.00 0.00 0.00 0.00 0.00 0.00 0.00 0.01 0.02 0.03 0.05 0.06 0.07 0.06 0.05 0.04 0.03 0.01 0.00 0.00 0.00 0.00
0.00 0.01 0.01 0.01 0.02 0.02 0.03 0.09 0.09 0.06 0.05 0.03 0.01 0.01 0.01 0.00 0.00 0.00 0.00 0.00 0.00 0.00 0.00 0.00 0.00 0.00 0.00 0.00 0.00 0.01 0.02 0.04 0.06 0.08 0.09 0.09 0.10 0.09 0.06 0.03 0.01 0.00 0.00 0.00
0.00 0.01 0.01 0.01 0.01 0.01 0.05 0.08 0.03 0.01 0.00 0.00 0.00 0.00 0.00 0.00 0.00 0.00 0.00 0.00 0.00 0.00 0.00 0.00 0.00 0.00 0.00 0.00 0.00 0.00 0.02 0.04 0.06 0.09 0.11 0.14 0.17 0.16 0.11 0.06 0.03 0.01 0.00 0.00
0.01 0.02 0.03 0.01 0.01 0.01 0.01 0.01 0.00 0.00 0.00 0.00 0.00 0.00 0.00 0.00 0.00 0.00 0.00 0.00 0.00 0.00 0.00 0.00 0.00 0.00 0.00 0.00 0.00 0.00 0.01 0.03 0.05 0.10 0.14 0.18 0.21 0.23 0.19 0.12 0.05 0.01 0.00 0.00
0.01 0.02 0.02 0.01 0.00 0.00 0.00 0.00 0.00 0.00 0.00 0.00 0.00 0.00 0.00 0.00 0.00 0.00 0.00 0.00 0.00 0.00 0.00 0.00 0.00 0.00 0.00 0.00 0.00 0.01 0.01 0.02 0.05 0.09 0.14 0.20 0.26 0.29 0.27 0.18 0.08 0.02 0.00 0.00
0.01 0.00 0.00 0.00 0.00 0.00 0.00 0.00 0.00 0.00 0.00 0.00 0.00 0.00 0.00 0.00 0.00 0.00 0.00 0.00 0.00 0.00 0.00 0.00 0.00 0.00 0.00 0.00 0.01 0.01 0.02 0.02 0.04 0.09 0.15 0.22 0.29 0.34 0.33 0.23 0.09 0.03 0.00 0.00
0.00 0.00 0.00 0.00 0.00 0.00 0.00 0.00 0.00 0.00 0.00 0.00 0.00 0.00 0.00 0.00 0.00 0.00 0.00 0.00 0.00 0.00 0.00 0.00 0.00 0.00 0.00 0.00 0.01 0.01 0.02 0.03 0.05 0.11 0.17 0.25 0.34 0.38 0.36 0.26 0.11 0.04 0.01 0.00
0.00 0.00 0.00 0.00 0.00 0.00 0.00 0.00 0.00 0.00 0.00 0.00 0.00 0.00 0.00 0.00 0.00 0.00 0.00 0.00 0.00 0.00 0.00 0.00 0.00 0.00 0.00 0.00 0.01 0.02 0.02 0.03 0.07 0.13 0.22 0.28 0.36 0.41 0.36 0.29 0.17 0.07 0.02 0.00
0.00 0.00 0.00 0.00 0.00 0.00 0.00 0.00 0.00 0.00 0.00 0.00 0.00 0.00 0.00 0.00 0.00 0.00 0.00 0.00 0.00 0.00 0.00 0.00 0.00 0.00 0.00 0.00 0.01 0.02 0.02 0.03 0.07 0.15 0.25 0.34 0.40 0.42 0.36 0.26 0.19 0.09 0.04 0.01
0.00 0.00 0.00 0.00 0.00 0.00 0.00 0.00 0.00 0.00 0.00 0.00 0.00 0.00 0.00 0.00 0.00 0.00 0.00 0.00 0.00 0.01 0.01 0.00 0.00 0.00 0.00 0.00 0.00 0.01 0.02 0.03 0.06 0.14 0.24 0.35 0.43 0.42 0.37 0.27 0.17 0.09 0.04 0.02
0.00 0.00 0.00 0.00 0.00 0.00 0.00 0.00 0.00 0.00 0.00 0.00 0.00 0.00 0.00 0.00 0.00 0.00 0.00 0.01 0.01 0.01 0.01 0.01 0.01 0.00 0.00 0.00 0.00 0.01 0.01 0.03 0.06 0.13 0.22 0.30 0.41 0.44 0.35 0.26 0.17 0.10 0.04 0.02
0.00 0.00 0.00 0.00 0.00 0.00 0.00 0.00 0.00 0.00 0.00 0.00 0.00 0.00 0.00 0.00 0.00 0.00 0.01 0.01 0.01 0.02 0.01 0.01 0.01 0.01 0.01 0.01 0.00 0.00 0.01 0.03 0.07 0.12 0.20 0.28 0.36 0.41 0.32 0.23 0.16 0.11 0.05 0.02
0.00 0.00 0.00 0.00 0.00 0.00 0.00 0.00 0.00 0.00 0.00 0.00 0.00 0.00 0.00 0.01 0.01 0.01 0.01 0.01 0.02 0.03 0.02 0.02 0.01 0.01 0.01 0.01 0.00 0.00 0.01 0.03 0.07 0.11 0.17 0.25 0.32 0.35 0.29 0.18 0.12 0.09 0.05 0.02
0.00 0.00 0.00 0.00 0.00 0.00 0.00 0.00 0.00 0.00 0.00 0.00 0.00 0.01 0.01 0.02 0.03 0.03 0.04 0.04 0.04 0.04 0.03 0.02 0.02 0.02 0.02 0.01 0.01 0.01 0.02 0.03 0.06 0.09 0.15 0.22 0.28 0.29 0.25 0.15 0.09 0.07 0.05 0.02
0.00 0.00 0.00 0.00 0.00 0.00 0.00 0.00 0.00 0.00 0.00 0.00 0.01 0.01 0.02 0.04 0.05 0.06 0.07 0.08 0.08 0.06 0.03 0.03 0.03 0.03 0.02 0.01 0.01 0.02 0.03 0.03 0.04 0.07 0.13 0.19 0.24 0.24 0.21 0.12 0.07 0.05 0.03 0.02
0.00 0.00 0.00 0.00 0.00 0.00 0.00 0.00 0.00 0.00 0.00 0.01 0.01 0.03 0.06 0.07 0.07 0.10 0.12 0.11 0.09 0.08 0.06 0.04 0.03 0.02 0.02 0.01 0.01 0.02 0.02 0.02 0.03 0.06 0.11 0.17 0.19 0.19 0.17 0.10 0.05 0.02 0.02 0.01
0.00 0.00 0.00 0.00 0.00 0.00 0.00 0.00 0.00 0.00 0.00 0.01 0.02 0.06 0.10 0.11 0.11 0.14 0.18 0.15 0.10 0.08 0.06 0.05 0.03 0.02 0.02 0.02 0.02 0.02 0.01 0.01 0.02 0.05 0.09 0.13 0.15 0.16 0.15 0.08 0.03 0.01 0.01 0.00
0.00 0.00 0.00 0.00 0.00 0.00 0.00 0.00 0.00 0.00 0.00 0.01 0.03 0.08 0.14 0.17 0.19 0.20 0.18 0.17 0.13 0.11 0.08 0.05 0.03 0.02 0.02 0.01 0.01 0.01 0.01 0.02 0.03 0.05 0.07 0.10 0.12 0.13 0.12 0.07 0.03 0.01 0.00 0.00
0.00 0.00 0.00 0.00 0.00 0.00 0.00 0.00 0.00 0.00 0.00 0.01 0.05 0.13 0.21 0.24 0.27 0.30 0.26 0.17 0.13 0.12 0.09 0.04 0.02 0.01 0.01 0.01 0.01 0.01 0.01 0.02 0.04 0.05 0.07 0.09 0.10 0.10 0.08 0.05 0.03 0.01 0.00 0.00
0.00 0.00 0.00 0.00 0.00 0.00 0.00 0.00 0.00 0.00 0.00 0.01 0.05 0.12 0.21 0.30 0.32 0.28 0.24 0.19 0.14 0.12 0.10 0.06 0.02 0.01 0.00 0.00 0.01 0.01 0.01 0.02 0.04 0.06 0.08 0.08 0.08 0.07 0.04 0.04 0.02 0.01 0.00 0.00
0.00 0.00 0.00 0.00 0.00 0.00 0.00 0.00 0.00 0.00 0.01 0.02 0.04 0.09 0.14 0.27 0.36 0.29 0.19 0.17 0.15 0.12 0.11 0.09 0.04 0.01 0.00 0.01 0.01 0.02 0.02 0.03 0.05 0.07 0.08 0.07 0.06 0.05 0.03 0.02 0.02 0.01 0.00 0.00
0.00 0.00 0.00 0.00 0.00 0.00 0.00 0.00 0.00 0.01 0.02 0.03 0.05 0.09 0.11 0.17 0.25 0.24 0.17 0.15 0.13 0.12 0.09 0.07 0.04 0.02 0.01 0.01 0.02 0.03 0.03 0.04 0.07 0.07 0.06 0.05 0.05 0.03 0.01 0.01 0.01 0.01 0.00 0.00
0.00 0.00 0.00 0.00 0.00 0.00 0.00 0.00 0.00 0.01 0.02 0.03 0.06 0.09 0.10 0.14 0.19 0.20 0.19 0.15 0.11 0.10 0.09 0.07 0.05 0.03 0.03 0.03 0.03 0.04 0.04 0.05 0.06 0.05 0.04 0.03 0.02 0.01 0.01 0.01 0.00 0.00 0.00 0.00
MSLP
1015.53 1015.79 1016.12 1016.51 1016.97 1017.46 1017.95 1018.39 1018.75 1019.00 1019.13 1019.12 1018.97 1018.72 1018.39 1017.99 1017.55 1017.10 1016.64 1016.19 1015.74 1015.30 1014.86 1014.40 1013.92 1013.41 1012.87 1012.29 1011.68 1011.05 1010.42 1009.82 1009.26 1008.78 1008.39 1008.10 1007.91 1007.78 1007.70 1007.63 1007.54 1007.39 1007.17 1006.89
1015.91 1016.18 1016.49 1016.84 1017.22 1017.63 1018.02 1018.39 1018.69 1018.91 1019.02 1019.02 1018.90 1018.68 1018.36 1017.98 1017.55 1017.08 1016.61 1016.14 1015.68 1015.23 1014.80 1014.36 1013.91 1013.44 1012.92 1012.35 1011.72 1011.06 1010.37 1009.69 1009.05 1008.49 1008.04 1007.70 1007.49 1007.39 1007.36 1007.38 1007.39 1007.37 1007.29 1007.15
1016.46 1016.74 1017.04 1017.36 1017.69 1018.02 1018.34 1018.62 1018.85 1018.99 1019.05 1019.01 1018.87 1018.62 1018.29 1017.88 1017.42 1016.93 1016.43 1015.93 1015.46 1015.01 1014.58 1014.17 1013.75 1013.30 1012.81 1012.25 1011.62 1010.94 1010.22 1009.49 1008.80 1008.18 1007.68 1007.31 1007.09 1007.01 1007.03 1007.12 1007.23 1007.33 1007.38 1007.36
1017.16 1017.46 1017.76 1018.05 1018.34 1018.61 1018.85 1019.04 1019.17 1019.23 1019.21 1019.09 1018.88 1018.57 1018.18 1017.73 1017.22 1016.69 1016.15 1015.62 1015.12 1014.67 1014.24 1013.84 1013.44 1013.01 1012.54 1012.00 1011.38 1010.70 1009.96 1009.21 1008.48 1007.83 1007.30 1006.91 1006.68 1006.60 1006.65 1006.79 1006.98 1007.17 1007.33 1007.42
1017.96 1018.25 1018.54 1018.81 1019.06 1019.27 1019.43 1019.53 1019.56 1019.52 1019.39 1019.18 1018.88 1018.49 1018.03 1017.52 1016.95 1016.37 1015.79 1015.23 1014.71 1014.23 1013.80 1013.39 1013.00 1012.58 1012.13 1011.60 1011.00 1010.33 1009.60 1008.84 1008.11 1007.44 1006.88 1006.47 1006.22 1006.13 1006.18 1006.35 1006.58 1006.83 1007.08 1007.27
1018.74 1019.01 1019.28 1019.51 1019.71 1019.85 1019.93 1019.94 1019.87 1019.72 1019.49 1019.18 1018.79 1018.32 1017.79 1017.21 1016.60 1015.97 1015.35 1014.76 1014.21 1013.71 1013.25 1012.84 1012.44 1012.03 1011.58 1011.08 1010.50 1009.84 1009.13 1008.39 1007.66 1006.99 1006.41 1005.97 1005.69 1005.57 1005.60 1005.76 1006.01 1006.30 1006.60 1006.88
1019.42 1019.66 1019.87 1020.06 1020.19 1020.26 1020.25 1020.16 1019.99 1019.74 1019.41 1019.00 1018.53 1017.99 1017.40 1016.77 1016.12 1015.46 1014.81 1014.19 1013.60 1013.08 1012.60 1012.16 1011.75 1011.34 1010.90 1010.42 1009.87 1009.25 1008.58 1007.87 1007.16 1006.48 1005.89 1005.42 1005.09 1004.93 1004.91 1005.04 1005.27 1005.58 1005.93 1006.28
1019.94 1020.11 1020.26 1020.36 1020.41 1020.39 1020.29 1020.10 1019.83 1019.48 1019.06 1018.58 1018.04 1017.45 1016.82 1016.16 1015.48 1014.79 1014.12 1013.47 1012.86 1012.31 1011.80 1011.34 1010.92 1010.51 1010.09 1009.63 1009.13 1008.56 1007.94 1007.27 1006.59 1005.92 1005.32 1004.82 1004.44 1004.22 1004.14 1004.21 1004.42 1004.72 1005.11 1005.54
1020.28 1020.36 1020.42 1020.43 1020.37 1020.24 1020.04 1019.75 1019.38 1018.95 1018.45 1017.91 1017.32 1016.70 1016.04 1015.36 1014.67 1013.96 1013.27 1012.60 1011.97 1011.38 1010.85 1010.37 1009.94 1009.54 1009.14 1008.73 1008.28 1007.77 1007.21 1006.61 1005.97 1005.33 1004.72 1004.19 1003.76 1003.47 1003.33 1003.35 1003.51 1003.81 1004.23 1004.73
1020.44 1020.43 1020.38 1020.27 1020.10 1019.86 1019.54 1019.15 1018.69 1018.18 1017.63 1017.03 1016.41 1015.76 1015.09 1014.40 1013.69 1012.97 1012.26 1011.57 1010.91 1010.30 1009.74 1009.25 1008.81 1008.43 1008.06 1007.70 1007.32 1006.90 1006.42 1005.88 1005.30 1004.70 1004.10 1003.54 1003.07 1002.73 1002.53 1002.49 1002.63 1002.92 1003.37 1003.94
1020.49 1020.37 1020.20 1019.96 1019.67 1019.30 1018.87 1018.39 1017.85 1017.27 1016.67 1016.03 1015.38 1014.72 1014.03 1013.32 1012.60 1011.86 1011.12 1010.40 1009.71 1009.07 1008.49 1007.98 1007.56 1007.19 1006.88 1006.58 1006.28 1005.95 1005.57 1005.11 1004.60 1004.04 1003.46 1002.91 1002.41 1002.02 1001.77 1001.70 1001.81 1002.11 1002.59 1003.22
1020.45 1020.22 1019.92 1019.57 1019.15 1018.68 1018.15 1017.57 1016.96 1016.33 1015.68 1015.02 1014.34 1013.65 1012.93 1012.20 1011.45 1010.68 1009.90 1009.13 1008.40 1007.73 1007.13 1006.62 1006.20 1005.87 1005.61 1005.39 1005.18 1004.95 1004.66 1004.30 1003.87 1003.37 1002.83 1002.28 1001.78 1001.37 1001.10 1001.00 1001.10 1001.41 1001.92 1002.61
1020.35 1020.01 1019.61 1019.15 1018.63 1018.05 1017.44 1016.79 1016.13 1015.45 1014.76 1014.06 1013.35 1012.63 1011.88 1011.11 1010.30 1009.48 1008.65 1007.83 1007.05 1006.34 1005.72 1005.20 1004.80 1004.51 1004.30 1004.16 1004.04 1003.91 1003.72 1003.46 1003.11 1002.68 1002.19 1001.67 1001.19 1000.78 1000.50 1000.40 1000.50 1000.82 1001.36 1002.08
1020.19 1019.77 1019.27 1018.72 1018.11 1017.47 1016.79 1016.09 1015.39 1014.67 1013.95 1013.22 1012.48 1011.71 1010.91 1010.08 1009.21 1008.32 1007.42 1006.54 1005.70 1004.95 1004.31 1003.79 1003.40 1003.15 1003.00 1002.93 1002.90 1002.86 1002.77 1002.60 1002.33 1001.97 1001.53 1001.06 1000.60 1000.21 999.95 999.86 999.97 1000.31 1000.86 1001.62
1019.97 1019.47 1018.91 1018.29 1017.62 1016.93 1016.22 1015.49 1014.76 1014.02 1013.28 1012.52 1011.73 1010.91 1010.04 1009.13 1008.19 1007.22 1006.24 1005.29 1004.41 1003.62 1002.95 1002.43 1002.06 1001.85 1001.75 1001.75 1001.79 1001.82 1001.81 1001.72 1001.52 1001.23 1000.85 1000.43 1000.01 999.66 999.42 999.36 999.49 999.84 1000.42 1001.18
1019.67 1019.12 1018.50 1017.84 1017.15 1016.44 1015.71 1014.98 1014.24 1013.48 1012.71 1011.92 1011.08 1010.19 1009.26 1008.27 1007.24 1006.18 1005.14 1004.12 1003.19 1002.37 1001.69 1001.18 1000.83 1000.65 1000.59 1000.64 1000.73 1000.83 1000.87 1000.84 1000.70 1000.46 1000.14 999.76 999.40 999.09 998.90 998.86 999.03 999.40 999.99 1000.75
1019.29 1018.70 1018.06 1017.39 1016.70 1015.98 1015.26 1014.53 1013.78 1013.02 1012.22 1011.38 1010.49 1009.54 1008.52 1007.46 1006.35 1005.22 1004.11 1003.05 1002.09 1001.25 1000.57 1000.07 999.75 999.59 999.57 999.65 999.78 999.90 999.98 999.97 999.87 999.67 999.39 999.07 998.75 998.50 998.35 998.37 998.57 998.97 999.56 1000.33
1018.86 1018.25 1017.61 1016.94 1016.26 1015.56 1014.85 1014.12 1013.37 1012.59 1011.76 1010.88 1009.93 1008.90 1007.82 1006.67 1005.50 1004.31 1003.16 1002.07 1001.10 1000.27 999.61 999.13 998.83 998.70 998.70 998.80 998.94 999.07 999.15 999.16 999.07 998.89 998.64 998.36 998.09 997.89 997.80 997.87 998.11 998.55 999.16 999.93
1018.42 1017.82 1017.19 1016.53 1015.86 1015.17 1014.47 1013.74 1012.98 1012.17 1011.30 1010.37 1009.35 1008.26 1007.11 1005.90 1004.68 1003.46 1002.29 1001.20 1000.24 999.44 998.82 998.38 998.11 998.01 998.02 998.12 998.25 998.36 998.43 998.42 998.32 998.15 997.92 997.67 997.45 997.30 997.27 997.40 997.69 998.16 998.80 999.57
1018.05 1017.45 1016.83 1016.19 1015.53 1014.85 1014.14 1013.40 1012.61 1011.76 1010.84 1009.84 1008.76 1007.61 1006.40 1005.15 1003.89 1002.66 1001.50 1000.44 999.52 998.77 998.20 997.81 997.58 997.49 997.52 997.60 997.71 997.79 997.82 997.78 997.66 997.47 997.25 997.03 996.85 996.76 996.79 996.97 997.32 997.84 998.51 999.29
1017.77 1017.19 1016.58 1015.95 1015.29 1014.60 1013.87 1013.09 1012.25 1011.35 1010.36 1009.30 1008.15 1006.94 1005.69 1004.41 1003.15 1001.93 1000.80 999.79 998.94 998.25 997.74 997.40 997.21 997.15 997.17 997.24 997.31 997.35 997.33 997.25 997.10 996.90 996.68 996.48 996.34 996.30 996.39 996.63 997.03 997.59 998.29 999.09
1017.62 1017.05 1016.45 1015.81 1015.13 1014.41 1013.64 1012.81 1011.92 1010.94 1009.89 1008.76 1007.56 1006.30 1005.01 1003.73 1002.47 1001.29 1000.21 999.26 998.48 997.86 997.42 997.13 996.98 996.93 996.95 997.00 997.03 997.02 996.96 996.83 996.65 996.43 996.21 996.03 995.93 995.94 996.08 996.38 996.83 997.43 998.14 998.95
1017.57 1017.00 1016.39 1015.74 1015.03 1014.27 1013.45 1012.56 1011.60 1010.56 1009.44 1008.25 1007.00 1005.71 1004.41 1003.12 1001.90 1000.75 999.73 998.85 998.14 997.59 997.21 996.97 996.85 996.81 996.81 996.83 996.83 996.78 996.67 996.50 996.30 996.07 995.86 995.70 995.63 995.68 995.87 996.21 996.70 997.32 998.05 998.85
1017.57 1017.00 1016.38 1015.69 1014.95 1014.14 1013.27 1012.32 1011.30 1010.20 1009.03 1007.79 1006.51 1005.20 1003.90 1002.64 1001.44 1000.35 999.38 998.57 997.92 997.42 997.08 996.87 996.77 996.72 996.72 996.70 996.67 996.58 996.44 996.25 996.03 995.80 995.61 995.48 995.44 995.53 995.75 996.12 996.63 997.25 997.97 998.75
1017.58 1016.99 1016.34 1015.63 1014.85 1013.99 1013.07 1012.08 1011.01 1009.87 1008.67 1007.41 1006.13 1004.82 1003.54 1002.31 1001.15 1000.10 999.18 998.41 997.80 997.35 997.03 996.83 996.71 996.66 996.63 996.59 996.52 996.40 996.24 996.05 995.83 995.62 995.44 995.34 995.34 995.45 995.70 996.09 996.59 997.21 997.89 998.63
1017.53 1016.93 1016.25 1015.50 1014.69 1013.81 1012.86 1011.84 1010.76 1009.61 1008.40 1007.16 1005.88 1004.61 1003.36 1002.16 1001.04 1000.03 999.14 998.40 997.81 997.36 997.04 996.83 996.69 996.61 996.54 996.47 996.38 996.25 996.08 995.89 995.69 995.51 995.36 995.30 995.32 995.46 995.72 996.10 996.59 997.17 997.81 998.49
1017.41 1016.78 1016.08 1015.32 1014.49 1013.59 1012.64 1011.63 1010.55 1009.43 1008.26 1007.05 1005.82 1004.59 1003.38 1002.23 1001.15 1000.16 999.30 998.56 997.97 997.50 997.15 996.90 996.72 996.59 996.49 996.40 996.28 996.15 995.99 995.81 995.64 995.49 995.38 995.35 995.41 995.56 995.82 996.19 996.65 997.18 997.76 998.36
Thickness
5700 5703 5701 5692 5685 5680 5671 5663 5653 5651 5643 5634 5632 5630 5629 5629 5628 5628 5628 5628 5627 5625 5624 5623 5624 5625 5626 5627 5629 5630 5633 5637 5641 5645 5646 5646 5644 5642 5639 5636 5633 5631 5630 5629
5699 5703 5695 5680 5673 5668 5659 5654 5649 5641 5630 5626 5625 5623 5620 5617 5616 5615 5614 5613 5612 5610 5608 5607 5607 5609 5610 5612 5613 5615 5618 5622 5628 5633 5635 5636 5636 5635 5632 5630 5627 5625 5623 5622
5680 5687 5685 5661 5655 5652 5644 5638 5633 5626 5617 5615 5613 5610 5605 5603 5601 5599 5598 5596 5594 5592 5591 5590 5589 5590 5591 5593 5595 5598 5601 5606 5611 5616 5621 5625 5626 5625 5624 5623 5621 5618 5617 5615
5667 5673 5658 5642 5647 5642 5632 5624 5618 5612 5607 5602 5598 5596 5594 5591 5588 5585 5582 5579 5576 5574 5573 5572 5571 5571 5573 5574 5576 5579 5582 5587 5592 5597 5604 5609 5612 5614 5615 5614 5613 5612 5610 5609
5652 5652 5642 5638 5635 5627 5618 5614 5604 5597 5595 5592 5588 5585 5584 5581 5575 5569 5564 5560 5557 5555 5553 5551 5551 5551 5552 5554 5556 5558 5562 5566 5570 5575 5583 5590 5597 5602 5605 5606 5606 5605 5604 5603
5646 5643 5634 5620 5623 5622 5613 5604 5594 5588 5583 5578 5570 5561 5565 5563 5557 5551 5547 5542 5539 5537 5534 5531 5531 5530 5529 5532 5534 5537 5542 5546 5550 5555 5562 5571 5580 5588 5593 5597 5599 5599 5598 5597
5635 5631 5621 5610 5612 5612 5594 5587 5584 5577 5569 5562 5551 5545 5546 5541 5535 5529 5525 5522 5519 5516 5514 5513 5513 5511 5512 5515 5518 5523 5527 5530 5534 5539 5544 5554 5565 5575 5582 5588 5592 5592 5592 5591
5625 5618 5610 5604 5600 5590 5581 5579 5571 5564 5556 5547 5540 5534 5528 5522 5516 5511 5506 5503 5500 5497 5498 5499 5498 5497 5500 5504 5510 5513 5515 5518 5521 5526 5531 5539 5547 5560 5572 5580 5585 5586 5585 5584
5615 5606 5600 5595 5588 5583 5574 5564 5557 5548 5541 5531 5522 5516 5510 5504 5500 5496 5494 5492 5491 5489 5490 5491 5491 5490 5493 5498 5501 5503 5505 5508 5511 5514 5518 5524 5532 5546 5561 5571 5579 5582 5583 5582
5605 5600 5595 5589 5581 5573 5564 5553 5545 5535 5525 5514 5505 5501 5496 5493 5490 5488 5487 5486 5486 5485 5485 5488 5489 5489 5490 5494 5495 5496 5497 5499 5501 5503 5507 5513 5522 5536 5550 5563 5575 5580 5582 5582
5595 5591 5585 5581 5573 5564 5554 5544 5534 5524 5513 5502 5494 5492 5489 5487 5487 5486 5486 5485 5484 5483 5484 5486 5487 5487 5488 5489 5489 5489 5490 5491 5493 5495 5499 5506 5516 5529 5543 5558 5573 5582 5585 5585
5585 5582 5570 5566 5562 5553 5541 5531 5521 5511 5504 5497 5488 5485 5486 5486 5486 5486 5486 5486 5485 5484 5485 5486 5486 5486 5486 5484 5483 5483 5484 5486 5487 5490 5495 5501 5510 5525 5541 5554 5566 5574 5582 5585
5580 5575 5564 5557 5550 5541 5529 5520 5510 5501 5493 5490 5489 5486 5485 5486 5487 5487 5487 5486 5485 5486 5486 5486 5485 5484 5483 5481 5479 5479 5479 5481 5482 5486 5491 5498 5508 5521 5536 5551 5562 5568 5574 5577
5574 5565 5555 5550 5541 5532 5520 5510 5502 5495 5490 5487 5487 5487 5486 5486 5487 5486 5486 5486 5486 5485 5485 5484 5482 5482 5480 5477 5475 5475 5476 5478 5480 5483 5489 5497 5508 5520 5533 5549 5562 5566 5567 5571
5571 5560 5549 5541 5530 5520 5511 5502 5496 5492 5490 5489 5487 5486 5486 5485 5485 5486 5486 5485 5483 5482 5481 5480 5478 5478 5475 5473 5472 5472 5473 5475 5478 5482 5490 5499 5510 5522 5535 5551 5564 5568 5567 5565
5562 5551 5541 5530 5521 5512 5502 5495 5490 5488 5488 5487 5487 5486 5485 5483 5483 5483 5482 5480 5478 5477 5476 5475 5474 5473 5471 5469 5468 5469 5470 5475 5479 5484 5493 5503 5513 5525 5539 5554 5565 5569 5571 5570
5547 5540 5532 5523 5514 5505 5496 5489 5487 5486 5486 5485 5485 5484 5483 5482 5481 5480 5479 5476 5472 5471 5469 5468 5468 5468 5466 5465 5464 5466 5468 5473 5480 5488 5497 5507 5518 5530 5543 5557 5567 5571 5574 5573
5541 5531 5522 5512 5504 5498 5493 5489 5486 5484 5483 5483 5483 5481 5480 5478 5476 5475 5474 5471 5469 5467 5465 5463 5462 5461 5460 5460 5461 5464 5468 5474 5481 5491 5501 5512 5523 5534 5547 5560 5568 5572 5573 5568
5538 5528 5518 5508 5498 5491 5486 5484 5483 5483 5482 5481 5479 5478 5476 5474 5473 5471 5469 5467 5464 5464 5463 5460 5456 5455 5456 5458 5461 5464 5469 5476 5485 5496 5506 5517 5527 5540 5552 5562 5569 5572 5572 5571
5533 5523 5513 5504 5495 5487 5483 5482 5482 5482 5482 5480 5478 5476 5475 5475 5472 5471 5468 5466 5463 5460 5458 5455 5453 5453 5454 5456 5461 5465 5472 5480 5490 5501 5512 5523 5534 5546 5556 5565 5570 5572 5573 5573
5527 5517 5508 5499 5492 5486 5481 5480 5480 5480 5481 5479 5476 5475 5475 5475 5474 5471 5469 5469 5467 5461 5457 5454 5453 5453 5454 5457 5462 5468 5476 5485 5496 5507 5518 5529 5540 5551 5560 5568 5572 5574 5575 5576
5520 5512 5503 5495 5489 5485 5482 5480 5479 5480 5481 5480 5479 5478 5477 5478 5478 5476 5473 5469 5467 5462 5459 5457 5456 5456 5457 5460 5466 5474 5482 5493 5503 5513 5524 5534 5545 5555 5564 5570 5573 5575 5576 5577
5515 5506 5497 5490 5485 5483 5482 5481 5481 5481 5482 5481 5481 5481 5480 5480 5479 5479 5479 5476 5471 5467 5465 5463 5462 5462 5464 5468 5475 5482 5492 5502 5512 5522 5531 5542 5551 5560 5567 5572 5575 5577 5578 5578
5511 5502 5494 5488 5483 5481 5481 5482 5483 5483 5484 5484 5486 5485 5484 5486 5487 5484 5481 5479 5477 5474 5474 5472 5470 5472 5475 5479 5485 5493 5502 5512 5521 5530 5540 5549 5557 5565 5570 5574 5577 5578 5579 5579
5506 5498 5491 5486 5482 5481 5480 5481 5483 5486 5487 5490 5491 5492 5490 5489 5489 5490 5489 5488 5486 5484 5484 5484 5483 5485 5488 5492 5499 5506 5514 5522 5531 5539 5548 5556 5564 5569 5574 5577 5579 5580 5580 5580
5501 5494 5488 5481 5478 5477 5477 5479 5481 5485 5487 5491 5494 5495 5496 5496 5496 5497 5497 5498 5498 5497 5498 5498 5499 5500 5503 5508 5513 5520 5527 5534 5541 5548 5555 5562 5568 5572 5575 5578 5579 5580 5580 5580
5498 5492 5487 5484 5481 5478 5477 5478 5480 5484 5487 5489 5491 5494 5497 5498 5500 5501 5504 5506 5508 5510 5511 5513 5514 5516 5519 5522 5527 5533 5539 5545 5551 5557 5562 5567 5571 5574 5576 5578 5579 5579 5580 5580